Inversion Research: Above Escarpment

*Note: All times are displayed in the local standard time of the station location.
**Rain - Equipment is designed to accurately record liquid precipitation; under conditions when precipitation is not in liquid form, the data displayed may not properly reflect rainfall values.

Date Max Temp
(°C)
Min Temp
(°C)
Avg Temp
(°C)
Rain (mm) Avg RH (%)
Fri, Feb 15, 2019 4.8 -4.5 1.0 - 82.5
Thu, Feb 14, 2019 5.6 -4.9 -0.6 - 78.6
Wed, Feb 13, 2019 0.7 -4.8 -2.9 - 90.4
Tue, Feb 12, 2019 2.5 -5.4 -2.2 - 93.8
Mon, Feb 11, 2019 -2.3 -4.9 -3.6 - 82.7
Sun, Feb 10, 2019 -3.3 -10.0 -6.2 - 81.0
Sat, Feb 09, 2019 -4.6 -10.1 -7.2 - 73.1
DateTime Avg Temp (°C) Rain (mm) RH (%)
Sat, Feb 16, 2019 17:00 -2.6 - 68.0
Sat, Feb 16, 2019 16:00 -2.4 - 67.4
Sat, Feb 16, 2019 15:00 -2.6 - 69.9
Sat, Feb 16, 2019 14:00 -2.8 - 71.0
Sat, Feb 16, 2019 13:00 -3.2 - 71.2
Sat, Feb 16, 2019 12:00 -3.9 - 72.7
Sat, Feb 16, 2019 11:00 -4.1 - 74.7
Sat, Feb 16, 2019 10:00 -4.2 - 74.5
Sat, Feb 16, 2019 09:00 -4.1 - 72.2
Sat, Feb 16, 2019 08:00 -4.7 - 78.5
Sat, Feb 16, 2019 07:00 -4.1 - 79.0
Sat, Feb 16, 2019 06:00 -3.5 - 87.9
Sat, Feb 16, 2019 05:00 -3.7 - 89.5
Sat, Feb 16, 2019 04:00 -3.8 - 88.6
Sat, Feb 16, 2019 03:00 -3.9 - 87.3
Sat, Feb 16, 2019 02:00 -3.9 - 84.3
Sat, Feb 16, 2019 01:00 -4.1 - 82.2
Sat, Feb 16, 2019 00:00 -4.2 - 80.4
Fri, Feb 15, 2019 23:00 -4.4 - 78.9
Fri, Feb 15, 2019 22:00 -4.1 - 77.8
Fri, Feb 15, 2019 21:00 -3.5 - 74.8
Fri, Feb 15, 2019 20:00 -2.5 - 76.9
Fri, Feb 15, 2019 19:00 -2.2 - 74.0
Fri, Feb 15, 2019 18:00 -1.4 - 74.3
Fri, Feb 15, 2019 17:00 -0.7 - 73.0
Fri, Feb 15, 2019 16:00 -0.3 - 77.7
Fri, Feb 15, 2019 15:00 0.0 - 77.8
Fri, Feb 15, 2019 14:00 1.1 - 75.1
Fri, Feb 15, 2019 13:00 1.8 - 73.0
Fri, Feb 15, 2019 12:00 2.1 - 79.8
Fri, Feb 15, 2019 11:00 3.1 - 85.4
Fri, Feb 15, 2019 10:00 3.7 - 96.4
Fri, Feb 15, 2019 09:00 3.4 - 100.0
Fri, Feb 15, 2019 08:00 3.7 - 100.0
Fri, Feb 15, 2019 07:00 3.6 - 100.0
Fri, Feb 15, 2019 06:00 3.7 - 100.0
Fri, Feb 15, 2019 05:00 3.9 - 99.4
Fri, Feb 15, 2019 04:00 4.5 - 87.4
Fri, Feb 15, 2019 03:00 4.3 - 77.1
Fri, Feb 15, 2019 02:00 3.4 - 74.7
Fri, Feb 15, 2019 01:00 4.5 - 67.0
Fri, Feb 15, 2019 00:00 5.2 - 66.6
Thu, Feb 14, 2019 23:00 4.6 - 64.6
Thu, Feb 14, 2019 22:00 4.3 - 66.3
Thu, Feb 14, 2019 21:00 1.0 - 78.4
Thu, Feb 14, 2019 20:00 -0.2 - 80.4
Thu, Feb 14, 2019 19:00 0.6 - 76.0
Thu, Feb 14, 2019 18:00 1.3 - 72.2


asterix Register now to access more data! asterix